ANA761 RJAA-RJCH

Flight info

Callsign ANA761
Flight time 1h 8m
Altitude 37000
Route KIMIN Y117 NISEP Y304 YTE Y113 TAXIR
Aircraft B764/H-SDE3FGHIM3RWXY/LB1

Departure

Time 2026-05-05 02:51
Airport Narita International Airport (RJAA)

Arrival

Time 2026-05-05 03:59
Airport Hakodate Airport (RJCH)
Time Latitude Longitude Altitude Speed Heading
2026-05-05 02:19 35.75836 140.38643 142 ft 0 kts 13°
2026-05-05 02:37 35.75835 140.38643 141 ft 1 kts 13°
2026-05-05 02:37 35.75820 140.38638 141 ft 2 kts 13°
2026-05-05 02:37 35.75806 140.38634 142 ft 2 kts 13°
2026-05-05 02:38 35.75791 140.38629 143 ft 2 kts 13°
2026-05-05 02:38 35.75777 140.38625 144 ft 2 kts 13°
2026-05-05 02:38 35.75763 140.38621 144 ft 2 kts 13°
2026-05-05 02:38 35.75750 140.38617 145 ft 0 kts 13°
2026-05-05 02:39 35.75738 140.38614 144 ft 2 kts
2026-05-05 02:39 35.75724 140.38617 144 ft 2 kts 338°
2026-05-05 02:39 35.75711 140.38626 144 ft 2 kts 318°
2026-05-05 02:39 35.75702 140.38640 144 ft 2 kts 297°
2026-05-05 02:40 35.75697 140.38657 144 ft 2 kts 277°
2026-05-05 02:40 35.75697 140.38675 143 ft 2 kts 257°
2026-05-05 02:40 35.75700 140.38689 143 ft 0 kts 241°
2026-05-05 02:40 35.75703 140.38695 143 ft 0 kts 239°
2026-05-05 02:43 35.75697 140.38681 143 ft 3 kts 239°
2026-05-05 02:43 35.75675 140.38644 143 ft 5 kts 220°
2026-05-05 02:43 35.75631 140.38641 143 ft 7 kts 161°
2026-05-05 02:44 35.75594 140.38663 142 ft 9 kts 150°
2026-05-05 02:44 35.75515 140.38719 142 ft 9 kts 150°
2026-05-05 02:44 35.75454 140.38733 141 ft 8 kts 191°
2026-05-05 02:44 35.75392 140.38704 140 ft 10 kts 203°
2026-05-05 02:45 35.75325 140.38667 139 ft 10 kts 201°
2026-05-05 02:45 35.75266 140.38661 141 ft 7 kts 165°
2026-05-05 02:45 35.75225 140.38684 141 ft 6 kts 150°
2026-05-05 02:45 35.75190 140.38709 142 ft 5 kts 149°
2026-05-05 02:46 35.75153 140.38736 143 ft 8 kts 149°
2026-05-05 02:46 35.75092 140.38780 143 ft 10 kts 149°
2026-05-05 02:46 35.75026 140.38829 143 ft 11 kts 148°
2026-05-05 02:46 35.74958 140.38876 141 ft 11 kts 150°
2026-05-05 02:47 35.74889 140.38927 141 ft 11 kts 149°
2026-05-05 02:47 35.74825 140.38972 142 ft 10 kts 149°
2026-05-05 02:47 35.74762 140.39018 141 ft 11 kts 149°
2026-05-05 02:47 35.74684 140.39075 135 ft 15 kts 149°
2026-05-05 02:48 35.74574 140.39154 127 ft 20 kts 149°
2026-05-05 02:48 35.74483 140.39220 124 ft 10 kts 152°
2026-05-05 02:48 35.74441 140.39224 125 ft 4 kts 199°
2026-05-05 02:48 35.74424 140.39210 126 ft 2 kts 220°
2026-05-05 02:49 35.74400 140.39174 128 ft 6 kts 236°
2026-05-05 02:49 35.74383 140.39140 131 ft 3 kts 240°
2026-05-05 02:49 35.74370 140.39111 133 ft 5 kts 243°
2026-05-05 02:49 35.74364 140.39070 134 ft 4 kts 283°
2026-05-05 02:50 35.74380 140.39044 134 ft 4 kts 316°
2026-05-05 02:50 35.74416 140.39014 134 ft 8 kts 327°
2026-05-05 02:50 35.74540 140.38922 135 ft 41 kts 329°
2026-05-05 02:50 35.74938 140.38635 146 ft 90 kts 329°
2026-05-05 02:51 35.75605 140.38155 144 ft 133 kts 329°
2026-05-05 02:51 35.76518 140.37499 225 ft 163 kts 330°
2026-05-05 02:51 35.77522 140.36807 674 ft 168 kts 331°
2026-05-05 02:51 35.78525 140.36076 1204 ft 169 kts 328°
2026-05-05 02:52 35.79596 140.35274 1400 ft 196 kts 331°
2026-05-05 02:52 35.80873 140.34360 1598 ft 226 kts 331°
2026-05-05 02:52 35.82311 140.33322 1967 ft 250 kts 330°
2026-05-05 02:52 35.83826 140.32224 2772 ft 255 kts 330°
2026-05-05 02:53 35.85346 140.31123 3738 ft 255 kts 329°
2026-05-05 02:53 35.86878 140.30013 4571 ft 260 kts 329°
2026-05-05 02:53 35.88428 140.28888 5391 ft 265 kts 328°
2026-05-05 02:53 35.90019 140.27733 6287 ft 267 kts 328°
2026-05-05 02:54 35.91625 140.26564 6981 ft 274 kts 328°
2026-05-05 02:54 35.93295 140.25351 6987 ft 282 kts 328°
2026-05-05 02:54 35.94959 140.24141 6980 ft 271 kts 328°
2026-05-05 02:54 35.96582 140.23032 6969 ft 266 kts 338°
2026-05-05 02:55 35.98397 140.22716 7000 ft 267 kts
2026-05-05 02:55 36.00156 140.23531 7019 ft 276 kts 33°
2026-05-05 02:55 36.01636 140.25081 7002 ft 281 kts 40°
2026-05-05 02:55 36.03057 140.26729 7005 ft 280 kts 47°
2026-05-05 02:56 36.03988 140.28856 7068 ft 286 kts 76°
2026-05-05 02:56 36.04154 140.31316 7576 ft 293 kts 86°
2026-05-05 02:56 36.04218 140.33792 8558 ft 291 kts 85°
2026-05-05 02:56 36.04267 140.36305 9316 ft 298 kts 85°
2026-05-05 02:57 36.04300 140.38823 10129 ft 301 kts 85°
2026-05-05 02:57 36.04322 140.41502 10415 ft 327 kts 88°
2026-05-05 02:57 36.03906 140.44415 10518 ft 365 kts 106°
2026-05-05 02:57 36.02718 140.47372 10742 ft 398 kts 122°
2026-05-05 02:58 36.01118 140.50201 11465 ft 411 kts 121°
2026-05-05 02:58 35.99571 140.53174 12279 ft 421 kts 123°
2026-05-05 02:58 35.97609 140.55922 13068 ft 434 kts 135°
2026-05-05 02:58 35.95214 140.58278 13856 ft 444 kts 149°
2026-05-05 02:59 35.92466 140.59825 15017 ft 441 kts 163°
2026-05-05 02:59 35.89472 140.60756 16028 ft 444 kts 172°
2026-05-05 02:59 35.86448 140.61360 17139 ft 444 kts 178°
2026-05-05 02:59 35.83356 140.61371 18193 ft 441 kts 190°
2026-05-05 03:00 35.80368 140.60727 19253 ft 436 kts 202°
2026-05-05 03:00 35.77569 140.59470 20377 ft 428 kts 212°
2026-05-05 03:00 35.75062 140.57660 21593 ft 415 kts 223°
2026-05-05 03:00 35.72910 140.55382 22731 ft 405 kts 233°
2026-05-05 03:01 35.71176 140.52730 23637 ft 399 kts 242°
2026-05-05 03:01 35.69911 140.49736 24682 ft 389 kts 252°
2026-05-05 03:01 35.69172 140.46599 25703 ft 382 kts 260°
2026-05-05 03:01 35.68949 140.43382 26556 ft 381 kts 269°
2026-05-05 03:02 35.69237 140.40164 27224 ft 387 kts 277°
2026-05-05 03:02 35.70051 140.36958 27789 ft 399 kts 285°
2026-05-05 03:02 35.71387 140.33910 28406 ft 411 kts 294°
2026-05-05 03:02 35.73188 140.31143 28922 ft 427 kts 303°
2026-05-05 03:03 35.75429 140.28740 29632 ft 438 kts 309°
2026-05-05 03:03 35.78019 140.26656 30259 ft 451 kts 317°
2026-05-05 03:03 35.80902 140.24995 30768 ft 466 kts 324°
2026-05-05 03:03 35.84035 140.23738 31294 ft 478 kts 330°
2026-05-05 03:04 35.87308 140.22734 31662 ft 488 kts 334°
2026-05-05 03:04 35.90601 140.21957 32338 ft 486 kts 335°
2026-05-05 03:04 35.93954 140.21260 32616 ft 494 kts 336°
2026-05-05 03:04 35.97362 140.20659 33218 ft 491 kts 337°
2026-05-05 03:05 36.00752 140.20093 33601 ft 494 kts 338°
2026-05-05 03:05 36.04166 140.19565 34176 ft 491 kts 338°
2026-05-05 03:05 36.07540 140.19058 34620 ft 492 kts 339°
2026-05-05 03:05 36.10931 140.18565 35223 ft 487 kts 339°
2026-05-05 03:06 36.14300 140.18083 35626 ft 487 kts 339°
2026-05-05 03:06 36.17679 140.17598 35928 ft 488 kts 339°
2026-05-05 03:06 36.20989 140.17134 36308 ft 482 kts 339°
2026-05-05 03:06 36.24342 140.16658 36571 ft 484 kts 339°
2026-05-05 03:07 36.27668 140.16191 37080 ft 480 kts 340°
2026-05-05 03:07 36.34276 140.15263 37178 ft 475 kts 340°
2026-05-05 03:08 36.40852 140.14333 37182 ft 477 kts 340°
2026-05-05 03:08 36.47434 140.13406 37180 ft 476 kts 340°
2026-05-05 03:09 36.54153 140.13098 37196 ft 499 kts 352°
2026-05-05 03:09 36.61084 140.13849 37180 ft 499 kts 353°
2026-05-05 03:10 36.67999 140.14650 37171 ft 496 kts 353°
2026-05-05 03:10 36.74840 140.15465 37181 ft 495 kts 353°
2026-05-05 03:11 36.81669 140.16289 37173 ft 494 kts 353°
2026-05-05 03:11 36.88536 140.17181 37170 ft 499 kts 357°
2026-05-05 03:12 36.95385 140.18768 37175 ft 505 kts 359°
2026-05-05 03:12 37.02305 140.20409 37174 ft 505 kts 359°
2026-05-05 03:13 37.09202 140.22055 37166 ft 503 kts 359°
2026-05-05 03:13 37.16065 140.23697 37165 ft 501 kts 359°
2026-05-05 03:14 37.22932 140.25343 37159 ft 503 kts 359°
2026-05-05 03:14 37.29809 140.26996 37168 ft 502 kts 359°
2026-05-05 03:15 37.36608 140.28636 37178 ft 497 kts 359°
2026-05-05 03:15 37.43405 140.30275 37166 ft 497 kts 359°
2026-05-05 03:16 37.50183 140.31912 37159 ft 500 kts 360°
2026-05-05 03:16 37.57022 140.33572 37147 ft 495 kts 359°
2026-05-05 03:17 37.63742 140.35202 37160 ft 493 kts
2026-05-05 03:17 37.70491 140.36839 37143 ft 498 kts
2026-05-05 03:18 37.77242 140.37886 37157 ft 480 kts 348°
2026-05-05 03:18 37.83946 140.38029 37137 ft 481 kts 350°
2026-05-05 03:19 37.93917 140.38438 37138 ft 478 kts 351°
2026-05-05 03:19 38.00536 140.38745 37166 ft 478 kts 351°
2026-05-05 03:20 38.07198 140.39062 37166 ft 479 kts 351°
2026-05-05 03:20 38.12692 140.39329 37153 ft 480 kts 351°
2026-05-05 03:21 38.20476 140.39711 37262 ft 477 kts 351°
2026-05-05 03:21 38.23788 140.39873 37146 ft 476 kts 351°
2026-05-05 03:21 38.27106 140.40037 37162 ft 474 kts 352°
2026-05-05 03:22 38.33665 140.40355 37168 ft 476 kts 352°
2026-05-05 03:22 38.40300 140.40683 37168 ft 476 kts 352°
2026-05-05 03:23 38.46909 140.41008 37171 ft 476 kts 352°
2026-05-05 03:23 38.53512 140.41333 37156 ft 477 kts 352°
2026-05-05 03:24 38.60122 140.41660 37158 ft 475 kts 352°
2026-05-05 03:24 38.66704 140.41989 37146 ft 470 kts 352°
2026-05-05 03:25 38.73261 140.42311 37142 ft 475 kts 352°
2026-05-05 03:25 38.79849 140.42639 37141 ft 472 kts 352°
2026-05-05 03:26 38.86404 140.42964 37142 ft 472 kts 353°
2026-05-05 03:26 38.92982 140.43665 37140 ft 482 kts 358°
2026-05-05 03:27 38.99648 140.44663 37124 ft 478 kts 357°
2026-05-05 03:27 39.06233 140.45639 37128 ft 477 kts 357°
2026-05-05 03:28 39.12809 140.46611 37125 ft 477 kts 357°
2026-05-05 03:28 39.19384 140.47583 37113 ft 476 kts 357°
2026-05-05 03:29 39.25959 140.48558 37126 ft 477 kts 357°
2026-05-05 03:29 39.32564 140.49539 37125 ft 476 kts 357°
2026-05-05 03:30 39.39137 140.50517 37116 ft 476 kts 358°
2026-05-05 03:30 39.45683 140.51494 37128 ft 473 kts 357°
2026-05-05 03:31 39.52262 140.52475 37128 ft 475 kts 358°
2026-05-05 03:31 39.58741 140.53447 37128 ft 469 kts 358°
2026-05-05 03:32 39.65198 140.54414 37052 ft 466 kts 358°
2026-05-05 03:32 39.68440 140.54898 36452 ft 472 kts 358°
2026-05-05 03:32 39.71675 140.55379 35844 ft 468 kts 358°
2026-05-05 03:33 39.74877 140.55849 35214 ft 460 kts 358°
2026-05-05 03:33 39.78020 140.56308 34588 ft 453 kts 358°
2026-05-05 03:33 39.81111 140.56761 33988 ft 448 kts 358°
2026-05-05 03:33 39.84181 140.57207 33491 ft 444 kts 358°
2026-05-05 03:34 39.87220 140.57649 32973 ft 440 kts 359°
2026-05-05 03:34 39.90264 140.58095 32381 ft 435 kts 360°
2026-05-05 03:34 39.93208 140.58527 31720 ft 428 kts
2026-05-05 03:34 39.96178 140.58962 31044 ft 424 kts
2026-05-05 03:35 39.99080 140.59387 30255 ft 421 kts
2026-05-05 03:35 40.01968 140.59811 29455 ft 424 kts
2026-05-05 03:35 40.04926 140.60048 28807 ft 431 kts
2026-05-05 03:35 40.07910 140.60561 27992 ft 428 kts
2026-05-05 03:36 40.16500 140.61925 25564 ft 401 kts
2026-05-05 03:36 40.19229 140.62341 24761 ft 396 kts
2026-05-05 03:37 40.21026 140.62611 24227 ft 394 kts
2026-05-05 03:37 40.24632 140.63150 23155 ft 390 kts
2026-05-05 03:37 40.27300 140.63548 22363 ft 387 kts
2026-05-05 03:37 40.29108 140.63818 21832 ft 385 kts
2026-05-05 03:38 40.32605 140.64342 20796 ft 380 kts
2026-05-05 03:38 40.35196 140.64729 20029 ft 375 kts
2026-05-05 03:38 40.37796 140.65118 19264 ft 372 kts
2026-05-05 03:38 40.40356 140.65501 18532 ft 370 kts
2026-05-05 03:39 40.42887 140.65881 17944 ft 366 kts
2026-05-05 03:39 40.45422 140.66261 17427 ft 363 kts
2026-05-05 03:39 40.47902 140.66631 16909 ft 362 kts
2026-05-05 03:39 40.50388 140.67004 16446 ft 361 kts
2026-05-05 03:40 40.52880 140.67375 15924 ft 361 kts
2026-05-05 03:40 40.55363 140.67749 15422 ft 358 kts
2026-05-05 03:40 40.57838 140.68118 14904 ft 354 kts
2026-05-05 03:40 40.60254 140.68483 14413 ft 352 kts
2026-05-05 03:41 40.62711 140.68851 13891 ft 352 kts
2026-05-05 03:41 40.65119 140.69214 13499 ft 347 kts
2026-05-05 03:41 40.67480 140.69568 12993 ft 343 kts
2026-05-05 03:41 40.69862 140.69925 12537 ft 345 kts
2026-05-05 03:42 40.72242 140.70285 12024 ft 342 kts
2026-05-05 03:42 40.74579 140.70622 11609 ft 341 kts
2026-05-05 03:42 40.76951 140.70901 11189 ft 338 kts
2026-05-05 03:42 40.79263 140.71184 10818 ft 338 kts
2026-05-05 03:43 40.81617 140.71464 10384 ft 338 kts
2026-05-05 03:43 40.83879 140.71745 10246 ft 313 kts
2026-05-05 03:43 40.85974 140.72003 10251 ft 288 kts
2026-05-05 03:43 40.87917 140.72240 10257 ft 273 kts 360°
2026-05-05 03:44 40.89750 140.72461 10247 ft 261 kts 359°
2026-05-05 03:44 40.91562 140.72678 10217 ft 257 kts 359°
2026-05-05 03:44 40.93337 140.72891 10184 ft 256 kts 359°
2026-05-05 03:44 40.95100 140.73102 10098 ft 258 kts 359°
2026-05-05 03:45 40.96914 140.73320 9980 ft 260 kts 359°
2026-05-05 03:45 40.98695 140.73537 9847 ft 258 kts 359°
2026-05-05 03:45 41.00500 140.73756 9709 ft 258 kts 359°
2026-05-05 03:45 41.02284 140.73973 9277 ft 259 kts 359°
2026-05-05 03:46 41.04073 140.74191 8938 ft 258 kts 359°
2026-05-05 03:46 41.05866 140.74409 8598 ft 260 kts 359°
2026-05-05 03:46 41.07684 140.74631 8258 ft 260 kts 359°
2026-05-05 03:46 41.09487 140.74852 7860 ft 261 kts 358°
2026-05-05 03:47 41.11286 140.75072 7530 ft 259 kts 358°
2026-05-05 03:47 41.13068 140.75290 7359 ft 256 kts 358°
2026-05-05 03:47 41.14835 140.75505 7259 ft 256 kts 358°
2026-05-05 03:47 41.16644 140.75723 7173 ft 261 kts 358°
2026-05-05 03:48 41.18460 140.75943 7050 ft 263 kts 358°
2026-05-05 03:48 41.19654 140.76092 6957 ft 260 kts 358°
2026-05-05 03:48 41.21472 140.76315 6820 ft 260 kts 358°
2026-05-05 03:48 41.23865 140.76608 6658 ft 260 kts 358°
2026-05-05 03:49 41.25661 140.76828 6537 ft 260 kts 358°
2026-05-05 03:49 41.27470 140.77049 6412 ft 260 kts 358°
2026-05-05 03:49 41.29252 140.77267 6286 ft 259 kts 358°
2026-05-05 03:49 41.31056 140.77489 6161 ft 259 kts 358°
2026-05-05 03:50 41.32854 140.77710 6041 ft 259 kts 358°
2026-05-05 03:50 41.34641 140.77930 5913 ft 258 kts 358°
2026-05-05 03:50 41.36446 140.78151 5789 ft 259 kts 358°
2026-05-05 03:50 41.38242 140.78374 5647 ft 255 kts 358°
2026-05-05 03:51 41.39971 140.78590 5621 ft 243 kts 358°
2026-05-05 03:51 41.41596 140.78795 5614 ft 231 kts 357°
2026-05-05 03:51 41.43189 140.78986 5609 ft 226 kts 357°
2026-05-05 03:51 41.44753 140.79391 5607 ft 232 kts 11°
2026-05-05 03:52 41.46316 140.80104 5318 ft 244 kts 11°
2026-05-05 03:52 41.47930 140.80835 4812 ft 247 kts 12°
2026-05-05 03:52 41.49564 140.81584 4312 ft 249 kts 12°
2026-05-05 03:52 41.51149 140.82321 4139 ft 236 kts 13°
2026-05-05 03:53 41.52655 140.83026 4175 ft 221 kts 12°
2026-05-05 03:53 41.54075 140.83684 4144 ft 214 kts 12°
2026-05-05 03:53 41.55464 140.84328 4177 ft 210 kts 11°
2026-05-05 03:53 41.56840 140.84967 4232 ft 204 kts 11°
2026-05-05 03:54 41.58170 140.85586 4152 ft 200 kts 11°
2026-05-05 03:54 41.59476 140.86194 4157 ft 197 kts 11°
2026-05-05 03:54 41.60759 140.86787 4138 ft 199 kts 11°
2026-05-05 03:54 41.62112 140.87411 3747 ft 208 kts 11°
2026-05-05 03:55 41.63495 140.88055 3250 ft 213 kts 12°
2026-05-05 03:55 41.64899 140.88710 2798 ft 214 kts 12°
2026-05-05 03:55 41.66268 140.89355 2619 ft 202 kts 12°
2026-05-05 03:55 41.67562 140.89964 2468 ft 190 kts 12°
2026-05-05 03:56 41.68757 140.90527 2357 ft 178 kts 11°
2026-05-05 03:56 41.69903 140.91061 2109 ft 168 kts 11°
2026-05-05 03:56 41.70921 140.91626 1968 ft 152 kts
2026-05-05 03:56 41.71955 140.91820 1750 ft 146 kts 348°
2026-05-05 03:57 41.72937 140.91628 1571 ft 142 kts 335°
2026-05-05 03:57 41.73848 140.91138 1386 ft 138 kts 322°
2026-05-05 03:57 41.74622 140.90413 1213 ft 135 kts 310°
2026-05-05 03:57 41.75245 140.89505 1056 ft 133 kts 298°
2026-05-05 03:58 41.75678 140.88449 888 ft 126 kts 280°
2026-05-05 03:58 41.75885 140.87315 729 ft 128 kts 278°
2026-05-05 03:58 41.76119 140.86165 597 ft 128 kts 279°
2026-05-05 03:58 41.76370 140.84998 384 ft 131 kts 279°
2026-05-05 03:59 41.76630 140.83832 189 ft 132 kts 281°
2026-05-05 03:59 41.76881 140.82753 130 ft 101 kts 287°
2026-05-05 03:59 41.77032 140.82135 120 ft 50 kts 287°
2026-05-05 03:59 41.77081 140.81938 117 ft 10 kts 288°
2026-05-05 04:00 41.77109 140.81822 116 ft 15 kts 287°
2026-05-05 04:00 41.77140 140.81711 116 ft 10 kts 295°
2026-05-05 04:00 41.77170 140.81663 117 ft 3 kts 334°
2026-05-05 04:00 41.77182 140.81659 119 ft 1 kts 345°
2026-05-05 04:01 41.77194 140.81657 120 ft 1 kts 356°
2026-05-05 04:01 41.77210 140.81659 121 ft 3 kts 13°
2026-05-05 04:01 41.77231 140.81668 124 ft 0 kts 18°
2026-05-05 04:01 41.77247 140.81674 126 ft 2 kts 16°
2026-05-05 04:02 41.77254 140.81677 127 ft 0 kts 15°
2026-05-05 04:02 41.77258 140.81679 128 ft 2 kts 14°
2026-05-05 04:02 41.77300 140.81674 132 ft 8 kts 336°
2026-05-05 04:02 41.77334 140.81622 134 ft 6 kts 292°
2026-05-05 04:03 41.77351 140.81551 131 ft 10 kts 285°
2026-05-05 04:03 41.77363 140.81499 126 ft 3 kts 301°
2026-05-05 04:03 41.77385 140.81486 126 ft 3 kts
2026-05-05 04:03 41.77420 140.81499 129 ft 4 kts 18°
2026-05-05 04:04 41.77443 140.81508 131 ft 2 kts 18°
2026-05-05 04:04 41.77466 140.81519 132 ft 5 kts 18°
2026-05-05 04:04 41.77485 140.81526 132 ft 2 kts 18°
2026-05-05 04:04 41.77489 140.81528 132 ft 0 kts 18°